| time (UTC) | temp F | wind direction | speed MPH | gust MPH | rain 1hr in | rain 24hr in | rain mn in | humidity % | barometer mb |
| 20260510101822 | 63 | 10 | 7.0 | 18.0 | 0.00 | 0.00 | 0.00 | 57 | 1014.1 |
| 20260510101317 | 64 | 335 | 8.0 | 18.0 | 0.00 | 0.00 | 0.00 | 57 | 1014.2 |
| 20260510100859 | 63 | 231 | 5.0 | 14.0 | 0.00 | 0.00 | 0.00 | 58 | 1014.2 |
| 20260510100331 | 62 | 47 | 6.0 | 16.0 | 0.00 | 0.00 | 0.00 | 57 | 1014.3 |
| 20260510095845 | 63 | 19 | 6.0 | 16.0 | 0.00 | 0.00 | 0.00 | 56 | 1014.5 |
| 20260510095330 | 62 | 44 | 6.0 | 13.0 | 0.00 | 0.00 | 0.00 | 57 | 1014.4 |
| 20260510094831 | 62 | 19 | 6.0 | 16.0 | 0.00 | 0.00 | 0.00 | 58 | 1014.4 |
| 20260510094325 | 61 | 58 | 8.0 | 19.0 | 0.00 | 0.00 | 0.00 | 57 | 1014.5 |
| 20260510093838 | 62 | 32 | 11.0 | 21.0 | 0.00 | 0.00 | 0.00 | 57 | 1014.4 |
| 20260510093338 | 62 | 37 | 7.0 | 22.0 | 0.00 | 0.00 | 0.00 | 58 | 1014.5 |
| 20260510092833 | 61 | 19 | 8.0 | 16.0 | 0.00 | 0.00 | 0.00 | 57 | 1014.6 |
| 20260510092329 | 62 | 156 | 7.0 | 18.0 | 0.00 | 0.00 | 0.00 | 58 | 1014.6 |
| 20260510091824 | 62 | 42 | 9.0 | 18.0 | 0.00 | 0.00 | 0.00 | 59 | 1014.6 |
| 20260510091329 | 62 | 49 | 5.0 | 15.0 | 0.00 | 0.00 | 0.00 | 63 | 1014.6 |
| 20260510090834 | 62 | 25 | 6.0 | 17.0 | 0.00 | 0.00 | 0.00 | 63 | 1014.5 |
| 20260510090335 | 61 | 8 | 5.0 | 17.0 | 0.00 | 0.00 | 0.00 | 64 | 1014.6 |
| 20260510085841 | 61 | 66 | 5.0 | 15.0 | 0.00 | 0.00 | 0.00 | 65 | 1014.6 |
| 20260510085332 | 61 | 10 | 8.0 | 15.0 | 0.00 | 0.00 | 0.00 | 64 | 1014.7 |
| 20260510084849 | 61 | 22 | 7.0 | 14.0 | 0.00 | 0.00 | 0.00 | 65 | 1014.7 |
| 20260510084350 | 60 | 27 | 9.0 | 14.0 | 0.00 | 0.00 | 0.00 | 66 | 1014.7 |
| 20260510083836 | 60 | 335 | 6.0 | 16.0 | 0.00 | 0.00 | 0.00 | 66 | 1014.7 |
| 20260510083318 | 60 | 40 | 9.0 | 17.0 | 0.00 | 0.00 | 0.00 | 66 | 1014.8 |
| 20260510082840 | 60 | 28 | 7.0 | 17.0 | 0.00 | 0.00 | 0.00 | 66 | 1014.8 |
| 20260510082325 | 60 | 342 | 5.0 | 16.0 | 0.00 | 0.00 | 0.00 | 67 | 1014.9 |
| 20260510081825 | 59 | 25 | 7.0 | 19.0 | 0.00 | 0.00 | 0.00 | 67 | 1014.9 |
| 20260510081319 | 59 | 82 | 7.0 | 19.0 | 0.00 | 0.00 | 0.00 | 68 | 1014.9 |
| 20260510080826 | 59 | 73 | 9.0 | 15.0 | 0.00 | 0.00 | 0.00 | 67 | 1014.9 |
| 20260510080320 | 59 | 24 | 7.0 | 15.0 | 0.00 | 0.00 | 0.00 | 68 | 1015.0 |
| 20260510075832 | 59 | 30 | 6.0 | 16.0 | 0.00 | 0.00 | 0.00 | 69 | 1015.0 |
| 20260510075347 | 59 | 1 | 7.0 | 12.0 | 0.00 | 0.00 | 0.00 | 70 | 1015.0 |
| 20260510074820 | 58 | 19 | 6.0 | 17.0 | 0.00 | 0.00 | 0.00 | 70 | 1015.1 |
| 20260510074322 | 58 | 8 | 10.0 | 17.0 | 0.00 | 0.00 | 0.00 | 69 | 1015.1 |
| 20260510073827 | 58 | 38 | 8.0 | 14.0 | 0.00 | 0.00 | 0.00 | 69 | 1015.1 |
| 20260510073328 | 58 | 21 | 5.0 | 16.0 | 0.00 | 0.00 | 0.00 | 72 | 1015.2 |
| 20260510072822 | 58 | 22 | 7.0 | 16.0 | 0.00 | 0.00 | 0.00 | 72 | 1015.2 |
| 20260510072337 | 58 | 308 | 5.0 | 13.0 | 0.00 | 0.00 | 0.00 | 73 | 1015.2 |
| 20260510071831 | 57 | 6 | 6.0 | 12.0 | 0.00 | 0.00 | 0.00 | 74 | 1015.2 |
| 20260510071332 | 57 | 39 | 5.0 | 13.0 | 0.00 | 0.00 | 0.00 | 75 | 1015.3 |
| 20260510070846 | 57 | 355 | 7.0 | 14.0 | 0.00 | 0.00 | 0.00 | 76 | 1015.3 |
| 20260510070318 | 56 | 103 | 8.0 | 14.0 | 0.00 | 0.00 | 0.00 | 77 | 1015.3 |
| 20260510065831 | 56 | 43 | 9.0 | 16.0 | 0.00 | 0.00 | 0.00 | 77 | 1015.3 |
| 20260510065319 | 56 | 35 | 9.0 | 16.0 | 0.00 | 0.00 | 0.00 | 78 | 1015.3 |
| 20260510064818 | 55 | 30 | 8.0 | 14.0 | 0.00 | 0.00 | 0.00 | 78 | 1015.3 |
| 20260510064400 | 55 | 30 | 6.0 | 14.0 | 0.00 | 0.00 | 0.00 | 79 | 1015.3 |
| 20260510063827 | 55 | 49 | 8.0 | 15.0 | 0.00 | 0.00 | 0.00 | 79 | 1015.3 |
| 20260510063320 | 55 | 13 | 7.0 | 15.0 | 0.00 | 0.00 | 0.00 | 80 | 1015.3 |
| 20260510062839 | 55 | 349 | 9.0 | 16.0 | 0.00 | 0.00 | 0.00 | 80 | 1015.3 |
| 20260510062329 | 55 | 43 | 8.0 | 18.0 | 0.00 | 0.00 | 0.00 | 80 | 1015.4 |
| 20260510061823 | 55 | 5 | 10.0 | 16.0 | 0.00 | 0.00 | 0.00 | 80 | 1015.4 |
| 20260510061324 | 55 | 90 | 10.0 | 16.0 | 0.00 | 0.00 | 0.00 | 80 | 1015.4 |
| 20260510060840 | 55 | 19 | 6.0 | 17.0 | 0.00 | 0.00 | 0.00 | 80 | 1015.4 |
| 20260510060334 | 54 | 43 | 5.0 | 17.0 | 0.00 | 0.00 | 0.00 | 81 | 1015.5 |
| 20260510055827 | 54 | 360 | 5.0 | 9.0 | 0.00 | 0.00 | 0.00 | 83 | 1015.4 |
| 20260510055341 | 54 | 41 | 2.0 | 9.0 | 0.00 | 0.00 | 0.00 | 84 | 1015.5 |
| 20260510054816 | 53 | 56 | 3.0 | 8.0 | 0.00 | 0.00 | 0.00 | 84 | 1015.5 |
| 20260510054332 | 53 | 33 | 3.0 | 8.0 | 0.00 | 0.00 | 0.00 | 85 | 1015.5 |
| 20260510053823 | 53 | 40 | 3.0 | 6.0 | 0.00 | 0.00 | 0.00 | 85 | 1015.4 |
| 20260510053343 | 53 | 321 | 3.0 | 8.0 | 0.00 | 0.00 | 0.00 | 85 | 1015.5 |
| 20260510052817 | 53 | 13 | 5.0 | 8.0 | 0.00 | 0.00 | 0.00 | 85 | 1015.5 |
| 20260510052328 | 53 | 51 | 3.0 | 8.0 | 0.00 | 0.00 | 0.00 | 85 | 1015.4 |
| 20260510051822 | 53 | 44 | 4.0 | 13.0 | 0.00 | 0.00 | 0.00 | 84 | 1015.5 |
| 20260510051325 | 53 | 103 | 6.0 | 13.0 | 0.00 | 0.00 | 0.00 | 84 | 1015.4 |
| 20260510050831 | 53 | 5 | 5.0 | 13.0 | 0.00 | 0.00 | 0.00 | 84 | 1015.4 |
| 20260510050332 | 53 | 13 | 7.0 | 14.0 | 0.00 | 0.00 | 0.00 | 85 | 1015.3 |
| 20260510045840 | 52 | 14 | 4.0 | 10.0 | 0.00 | 0.00 | 0.00 | 85 | 1015.3 |
| 20260510045327 | 52 | 335 | 3.0 | 8.0 | 0.00 | 0.00 | 0.00 | 86 | 1015.3 |
| 20260510044823 | 52 | 40 | 4.0 | 8.0 | 0.00 | 0.00 | 0.00 | 86 | 1015.3 |
| 20260510044325 | 52 | 65 | 4.0 | 9.0 | 0.00 | 0.00 | 0.00 | 86 | 1015.3 |
| 20260510043840 | 52 | 30 | 3.0 | 9.0 | 0.00 | 0.00 | 0.00 | 86 | 1015.2 |
| 20260510043335 | 52 | 30 | 4.0 | 9.0 | 0.00 | 0.00 | 0.00 | 86 | 1015.2 |
| 20260510042826 | 52 | 8 | 5.0 | 9.0 | 0.00 | 0.00 | 0.00 | 86 | 1015.2 |
| 20260510042322 | 52 | 40 | 3.0 | 6.0 | 0.00 | 0.00 | 0.00 | 86 | 1015.2 |
| 20260510041816 | 52 | 30 | 4.0 | 6.0 | 0.00 | 0.00 | 0.00 | 86 | 1015.2 |
| 20260510041317 | 52 | 1 | 2.0 | 6.0 | 0.00 | 0.00 | 0.00 | 86 | 1015.2 |
| 20260510040826 | 52 | 49 | 3.0 | 6.0 | 0.00 | 0.00 | 0.00 | 86 | 1015.3 |
| 20260510040318 | 52 | 49 | 3.0 | 5.0 | 0.00 | 0.00 | 0.00 | 86 | 1015.3 |
| 20260510035831 | 53 | 348 | 1.0 | 6.0 | 0.00 | 0.00 | 0.00 | 86 | 1015.3 |
| 20260510035318 | 53 | 50 | 3.0 | 7.0 | 0.00 | 0.00 | 0.00 | 85 | 1015.3 |
| 20260510034841 | 53 | 62 | 3.0 | 7.0 | 0.00 | 0.00 | 0.00 | 85 | 1015.4 |
| 20260510034315 | 53 | 318 | 4.0 | 6.0 | 0.00 | 0.00 | 0.00 | 86 | 1015.4 |
| 20260510033831 | 53 | 37 | 3.0 | 5.0 | 0.00 | 0.00 | 0.00 | 86 | 1015.3 |
| 20260510033342 | 53 | 41 | 3.0 | 5.0 | 0.00 | 0.00 | 0.00 | 86 | 1015.3 |
| 20260510032840 | 53 | 33 | 3.0 | 6.0 | 0.00 | 0.00 | 0.00 | 86 | 1015.3 |
| 20260510032354 | 52 | 27 | 2.0 | 6.0 | 0.00 | 0.00 | 0.00 | 86 | 1015.4 |
| 20260510031834 | 52 | 73 | 1.0 | 5.0 | 0.00 | 0.00 | 0.00 | 86 | 1015.4 |
| 20260510031357 | 53 | 56 | 2.0 | 5.0 | 0.00 | 0.00 | 0.00 | 86 | 1015.4 |
| 20260510030821 | 53 | 72 | 2.0 | 4.0 | 0.00 | 0.00 | 0.00 | 86 | 1015.4 |
| 20260510030316 | 53 | 60 | 2.0 | 4.0 | 0.00 | 0.00 | 0.00 | 86 | 1015.4 |
| 20260510025829 | 53 | 46 | 1.0 | 4.0 | 0.00 | 0.00 | 0.00 | 86 | 1015.4 |
| 20260510025325 | 53 | 18 | 2.0 | 9.0 | 0.00 | 0.00 | 0.00 | 85 | 1015.4 |
| 20260510024820 | 53 | 43 | 5.0 | 9.0 | 0.00 | 0.00 | 0.00 | 86 | 1015.3 |
| 20260510024339 | 53 | 46 | 3.0 | 6.0 | 0.00 | 0.00 | 0.00 | 85 | 1015.4 |
| 20260510023828 | 53 | 10 | 2.0 | 7.0 | 0.00 | 0.00 | 0.00 | 85 | 1015.4 |
| 20260510023347 | 53 | 53 | 3.0 | 8.0 | 0.00 | 0.00 | 0.00 | 85 | 1015.4 |
| 20260510022822 | 53 | 56 | 3.0 | 5.0 | 0.00 | 0.00 | 0.00 | 85 | 1015.5 |
| 20260510022355 | 53 | 19 | 2.0 | 5.0 | 0.00 | 0.00 | 0.00 | 85 | 1015.5 |
| 20260510021832 | 53 | 47 | 2.0 | 5.0 | 0.00 | 0.00 | 0.00 | 85 | 1015.6 |
| 20260510021328 | 53 | 27 | 3.0 | 5.0 | 0.00 | 0.00 | 0.00 | 85 | 1015.6 |
| 20260510020839 | 54 | 60 | 2.0 | 7.0 | 0.00 | 0.00 | 0.00 | 84 | 1015.6 |
| 20260510020320 | 54 | 16 | 3.0 | 7.0 | 0.00 | 0.00 | 0.00 | 84 | 1015.6 |
| 20260510015826 | 54 | 72 | 1.0 | 8.0 | 0.00 | 0.00 | 0.00 | 84 | 1015.6 |
| 20260510015321 | 54 | 339 | 3.0 | 8.0 | 0.00 | 0.00 | 0.00 | 84 | 1015.6 |
| 20260510014836 | 54 | 48 | 3.0 | 5.0 | 0.00 | 0.00 | 0.00 | 84 | 1015.5 |
| 20260510014317 | 54 | 8 | 2.0 | 5.0 | 0.00 | 0.00 | 0.00 | 84 | 1015.6 |
| 20260510013832 | 54 | 58 | 2.0 | 6.0 | 0.00 | 0.00 | 0.00 | 83 | 1015.6 |
| 20260510013324 | 54 | 11 | 3.0 | 6.0 | 0.00 | 0.00 | 0.00 | 83 | 1015.6 |
| 20260510012817 | 54 | 1 | 3.0 | 6.0 | 0.00 | 0.00 | 0.00 | 83 | 1015.6 |
| 20260510012333 | 54 | 30 | 3.0 | 6.0 | 0.00 | 0.00 | 0.00 | 83 | 1015.6 |
| 20260510011834 | 55 | 360 | 2.0 | 6.0 | 0.00 | 0.00 | 0.00 | 82 | 1015.7 |
| 20260510011327 | 55 | 37 | 3.0 | 7.0 | 0.00 | 0.00 | 0.00 | 82 | 1015.8 |
| 20260510010841 | 55 | 42 | 5.0 | 7.0 | 0.00 | 0.00 | 0.00 | 82 | 1015.8 |
| 20260510010343 | 55 | 48 | 2.0 | 6.0 | 0.00 | 0.00 | 0.00 | 82 | 1015.8 |
| 20260510005827 | 55 | 46 | 2.0 | 5.0 | 0.00 | 0.00 | 0.00 | 82 | 1015.8 |
| 20260510005322 | 55 | 33 | 1.0 | 4.0 | 0.00 | 0.00 | 0.00 | 81 | 1015.7 |
| 20260510004837 | 55 | 349 | 2.0 | 4.0 | 0.00 | 0.00 | 0.00 | 81 | 1015.8 |
| 20260510004335 | 55 | 42 | 1.0 | 3.0 | 0.00 | 0.00 | 0.00 | 81 | 1015.9 |
| 20260510003843 | 55 | 56 | 1.0 | 5.0 | 0.00 | 0.00 | 0.00 | 81 | 1015.9 |
| 20260510003325 | 55 | 333 | 3.0 | 5.0 | 0.00 | 0.00 | 0.00 | 81 | 1016.0 |
| 20260510002821 | 55 | 345 | 1.0 | 4.0 | 0.00 | 0.00 | 0.00 | 80 | 1016.0 |
| 20260510002315 | 55 | 359 | 1.0 | 3.0 | 0.00 | 0.00 | 0.00 | 80 | 1016.0 |
| 20260510001838 | 55 | 58 | 0.0 | 3.0 | 0.00 | 0.00 | 0.00 | 79 | 1016.0 |
| 20260510001334 | 55 | 56 | 1.0 | 3.0 | 0.00 | 0.00 | 0.00 | 79 | 1016.0 |
| 20260510000818 | 55 | 344 | 1.0 | 3.0 | 0.00 | 0.00 | 0.00 | 79 | 1016.1 |
| 20260510000320 | 55 | 41 | 2.0 | 3.0 | 0.00 | 0.00 | 0.00 | 78 | 1016.1 |
| 20260509235834 | 55 | 359 | 1.0 | 3.0 | 0.00 | 0.00 | 0.00 | 77 | 1016.2 |
| 20260509235321 | 55 | 3 | 1.0 | 4.0 | 0.00 | 0.00 | 0.00 | 77 | 1016.3 |
| 20260509234816 | 55 | 19 | 2.0 | 6.0 | 0.00 | 0.00 | 0.00 | 76 | 1016.2 |
| 20260509234319 | 56 | 342 | 3.0 | 6.0 | 0.00 | 0.00 | 0.00 | 76 | 1016.2 |
| 20260509233833 | 56 | 5 | 3.0 | 6.0 | 0.00 | 0.00 | 0.00 | 75 | 1016.3 |
| 20260509233328 | 56 | 22 | 1.0 | 8.0 | 0.00 | 0.00 | 0.00 | 75 | 1016.3 |
| 20260509232823 | 56 | 328 | 3.0 | 8.0 | 0.00 | 0.00 | 0.00 | 73 | 1016.3 |
| 20260509232316 | 57 | 56 | 1.0 | 5.0 | 0.00 | 0.00 | 0.00 | 73 | 1016.3 |
| 20260509231833 | 57 | 56 | 2.0 | 5.0 | 0.00 | 0.00 | 0.00 | 72 | 1016.3 |
| 20260509231326 | 57 | 43 | 2.0 | 6.0 | 0.00 | 0.00 | 0.00 | 72 | 1016.3 |
| 20260509230823 | 57 | 25 | 3.0 | 6.0 | 0.00 | 0.00 | 0.00 | 71 | 1016.3 |
| 20260509230317 | 57 | 354 | 2.0 | 7.0 | 0.00 | 0.00 | 0.00 | 70 | 1016.3 |
| 20260509225826 | 57 | 24 | 3.0 | 7.0 | 0.00 | 0.00 | 0.00 | 70 | 1016.3 |
| 20260509225334 | 57 | 30 | 2.0 | 7.0 | 0.00 | 0.00 | 0.00 | 69 | 1016.2 |
| 20260509224837 | 57 | 355 | 3.0 | 7.0 | 0.00 | 0.00 | 0.00 | 68 | 1016.2 |
| 20260509224331 | 57 | 352 | 2.0 | 5.0 | 0.00 | 0.00 | 0.00 | 68 | 1016.2 |
| 20260509223826 | 58 | 124 | 2.0 | 7.0 | 0.00 | 0.00 | 0.00 | 67 | 1016.3 |
| 20260509223318 | 58 | 41 | 3.0 | 7.0 | 0.00 | 0.00 | 0.00 | 67 | 1016.3 |
| 20260509222838 | 58 | 19 | 2.0 | 8.0 | 0.00 | 0.00 | 0.00 | 67 | 1016.2 |
| 20260509222322 | 58 | 15 | 2.0 | 4.0 | 0.00 | 0.00 | 0.00 | 67 | 1016.3 |
| 20260509221843 | 58 | 47 | 2.0 | 6.0 | 0.00 | 0.00 | 0.00 | 67 | 1016.4 |
| 20260509221324 | 58 | 24 | 1.0 | 3.0 | 0.00 | 0.00 | 0.00 | 67 | 1016.4 |
| 20260509220859 | 58 | 72 | 1.0 | 6.0 | 0.00 | 0.00 | 0.00 | 66 | 1016.4 |
| 20260509220329 | 59 | 128 | 2.0 | 6.0 | 0.00 | 0.00 | 0.00 | 66 | 1016.4 |
| 20260509215817 | 59 | 42 | 4.0 | 8.0 | 0.00 | 0.00 | 0.00 | 66 | 1016.4 |
| 20260509215332 | 59 | 11 | 4.0 | 8.0 | 0.00 | 0.00 | 0.00 | 66 | 1016.3 |
| 20260509214826 | 59 | 35 | 2.0 | 7.0 | 0.00 | 0.00 | 0.00 | 66 | 1016.2 |
| 20260509214320 | 59 | 30 | 3.0 | 7.0 | 0.00 | 0.00 | 0.00 | 65 | 1016.2 |
| 20260509213832 | 59 | 48 | 2.0 | 5.0 | 0.00 | 0.00 | 0.00 | 66 | 1016.3 |
| 20260509213326 | 59 | 46 | 2.0 | 6.0 | 0.00 | 0.00 | 0.00 | 65 | 1016.4 |
| 20260509212828 | 59 | 25 | 4.0 | 6.0 | 0.00 | 0.00 | 0.00 | 65 | 1016.3 |
| 20260509212343 | 59 | 46 | 3.0 | 6.0 | 0.00 | 0.00 | 0.00 | 66 | 1016.2 |
| 20260509211902 | 59 | 37 | 1.0 | 5.0 | 0.00 | 0.00 | 0.00 | 66 | 1016.2 |
| 20260509211355 | 59 | 346 | 0.0 | 3.0 | 0.00 | 0.00 | 0.00 | 65 | 1016.2 |
| 20260509210825 | 60 | 53 | 2.0 | 6.0 | 0.00 | 0.00 | 0.00 | 65 | 1016.2 |
| 20260509210318 | 60 | 58 | 1.0 | 6.0 | 0.00 | 0.00 | 0.00 | 65 | 1016.1 |
| 20260509205832 | 60 | 53 | 3.0 | 5.0 | 0.00 | 0.00 | 0.00 | 64 | 1016.1 |
| 20260509205322 | 60 | 354 | 1.0 | 5.0 | 0.00 | 0.00 | 0.00 | 64 | 1016.1 |
| 20260509204822 | 60 | 21 | 2.0 | 6.0 | 0.00 | 0.00 | 0.00 | 63 | 1016.1 |
| 20260509204317 | 60 | 46 | 2.0 | 6.0 | 0.00 | 0.00 | 0.00 | 63 | 1016.1 |
| 20260509203828 | 61 | 60 | 2.0 | 6.0 | 0.00 | 0.00 | 0.00 | 63 | 1016.1 |
| 20260509203322 | 61 | 25 | 2.0 | 6.0 | 0.00 | 0.00 | 0.00 | 63 | 1016.1 |
| 20260509202825 | 61 | 1 | 2.0 | 7.0 | 0.00 | 0.00 | 0.00 | 62 | 1016.1 |
| 20260509202333 | 61 | 35 | 4.0 | 7.0 | 0.00 | 0.00 | 0.00 | 62 | 1016.2 |
| 20260509201834 | 61 | 40 | 1.0 | 7.0 | 0.00 | 0.00 | 0.00 | 61 | 1016.2 |
| 20260509201357 | 61 | 344 | 2.0 | 7.0 | 0.00 | 0.00 | 0.00 | 61 | 1016.2 |
| 20260509200824 | 62 | 24 | 3.0 | 7.0 | 0.00 | 0.00 | 0.00 | 60 | 1016.2 |
| 20260509200327 | 62 | 50 | 3.0 | 7.0 | 0.00 | 0.00 | 0.00 | 61 | 1016.1 |
| 20260509195829 | 62 | 346 | 2.0 | 5.0 | 0.00 | 0.00 | 0.00 | 61 | 1016.1 |
| 20260509195344 | 62 | 63 | 3.0 | 5.0 | 0.00 | 0.00 | 0.00 | 61 | 1016.0 |
| 20260509194816 | 62 | 61 | 2.0 | 4.0 | 0.00 | 0.00 | 0.00 | 61 | 1016.0 |
| 20260509194318 | 62 | 359 | 1.0 | 6.0 | 0.00 | 0.00 | 0.00 | 61 | 1015.8 |
| 20260509193833 | 62 | 33 | 2.0 | 6.0 | 0.00 | 0.00 | 0.00 | 61 | 1015.8 |
| 20260509193348 | 63 | 48 | 1.0 | 4.0 | 0.00 | 0.00 | 0.00 | 61 | 1015.8 |
| 20260509192849 | 63 | 336 | 2.0 | 4.0 | 0.00 | 0.00 | 0.00 | 61 | 1015.9 |
| 20260509192344 | 63 | 53 | 1.0 | 4.0 | 0.00 | 0.00 | 0.00 | 60 | 1016.0 |
| 20260509191842 | 63 | 48 | 1.0 | 4.0 | 0.00 | 0.00 | 0.00 | 59 | 1016.0 |
| 20260509191404 | 64 | 360 | 2.0 | 4.0 | 0.00 | 0.00 | 0.00 | 59 | 1015.9 |
| 20260509190828 | 64 | 328 | 1.0 | 5.0 | 0.00 | 0.00 | 0.00 | 58 | 1015.8 |
| 20260509190319 | 64 | 57 | 2.0 | 5.0 | 0.00 | 0.00 | 0.00 | 58 | 1015.9 |
| 20260509185827 | 64 | 352 | 2.0 | 5.0 | 0.00 | 0.00 | 0.00 | 57 | 1015.9 |
| 20260509185321 | 65 | 10 | 2.0 | 7.0 | 0.00 | 0.00 | 0.00 | 57 | 1015.8 |
| 20260509184836 | 65 | 355 | 3.0 | 8.0 | 0.00 | 0.00 | 0.00 | 56 | 1015.8 |
| 20260509184336 | 66 | 333 | 3.0 | 8.0 | 0.00 | 0.00 | 0.00 | 55 | 1015.8 |
| 20260509183824 | 66 | 341 | 1.0 | 7.0 | 0.00 | 0.00 | 0.00 | 54 | 1015.8 |
| 20260509183357 | 66 | 347 | 3.0 | 7.0 | 0.00 | 0.00 | 0.00 | 53 | 1015.8 |
| 20260509182836 | 67 | 348 | 2.0 | 7.0 | 0.00 | 0.00 | 0.00 | 53 | 1015.7 |
| 20260509182325 | 67 | 349 | 4.0 | 9.0 | 0.00 | 0.00 | 0.00 | 52 | 1015.7 |
| 20260509181826 | 67 | 357 | 6.0 | 9.0 | 0.00 | 0.00 | 0.00 | 52 | 1015.6 |
| 20260509181341 | 67 | 345 | 1.0 | 9.0 | 0.00 | 0.00 | 0.00 | 53 | 1015.7 |
| 20260509180816 | 67 | 33 | 2.0 | 7.0 | 0.00 | 0.00 | 0.00 | 54 | 1015.6 |
| 20260509180338 | 67 | 316 | 2.0 | 9.0 | 0.00 | 0.00 | 0.00 | 53 | 1015.5 |
| 20260509175825 | 67 | 13 | 4.0 | 9.0 | 0.00 | 0.00 | 0.00 | 53 | 1015.6 |
| 20260509175340 | 67 | 317 | 4.0 | 9.0 | 0.00 | 0.00 | 0.00 | 53 | 1015.5 |
| 20260509174834 | 67 | 311 | 3.0 | 10.0 | 0.00 | 0.00 | 0.00 | 52 | 1015.4 |
| 20260509174336 | 68 | 341 | 5.0 | 12.0 | 0.00 | 0.00 | 0.00 | 52 | 1015.3 |
| 20260509173822 | 68 | 251 | 3.0 | 9.0 | 0.00 | 0.00 | 0.00 | 52 | 1015.4 |
| 20260509173316 | 68 | 24 | 3.0 | 13.0 | 0.00 | 0.00 | 0.00 | 52 | 1015.4 |
| 20260509172817 | 68 | 1 | 4.0 | 12.0 | 0.00 | 0.00 | 0.00 | 51 | 1015.3 |
| 20260509172326 | 68 | 336 | 4.0 | 10.0 | 0.00 | 0.00 | 0.00 | 51 | 1015.3 |
| 20260509171828 | 69 | 311 | 3.0 | 11.0 | 0.00 | 0.00 | 0.00 | 51 | 1015.3 |
| 20260509171324 | 69 | 6 | 7.0 | 11.0 | 0.00 | 0.00 | 0.00 | 50 | 1015.3 |
| 20260509170819 | 69 | 5 | 6.0 | 10.0 | 0.00 | 0.00 | 0.00 | 50 | 1015.3 |
| 20260509170342 | 70 | 345 | 5.0 | 9.0 | 0.00 | 0.00 | 0.00 | 49 | 1015.4 |
| 20260509165828 | 70 | 339 | 5.0 | 9.0 | 0.00 | 0.00 | 0.00 | 49 | 1015.4 |
| 20260509165316 | 70 | 19 | 5.0 | 9.0 | 0.00 | 0.00 | 0.00 | 49 | 1015.4 |
| 20260509164817 | 70 | 316 | 4.0 | 10.0 | 0.00 | 0.00 | 0.00 | 48 | 1015.3 |
| 20260509164341 | 70 | 352 | 6.0 | 11.0 | 0.00 | 0.00 | 0.00 | 48 | 1015.4 |
| 20260509163846 | 70 | 333 | 5.0 | 9.0 | 0.00 | 0.00 | 0.00 | 47 | 1015.4 |
| 20260509163326 | 71 | 33 | 5.0 | 8.0 | 0.00 | 0.00 | 0.00 | 47 | 1015.5 |
| 20260509162820 | 71 | 352 | 1.0 | 8.0 | 0.00 | 0.00 | 0.00 | 46 | 1015.4 |
| 20260509162316 | 71 | 353 | 2.0 | 5.0 | 0.00 | 0.00 | 0.00 | 45 | 1015.4 |
| 20260509161840 | 70 | 32 | 1.0 | 6.0 | 0.00 | 0.00 | 0.00 | 46 | 1015.5 |
| 20260509161352 | 70 | 304 | 3.0 | 6.0 | 0.00 | 0.00 | 0.00 | 46 | 1015.5 |
| 20260509160823 | 70 | 342 | 0.0 | 6.0 | 0.00 | 0.00 | 0.00 | 47 | 1015.5 |
| 20260509160335 | 69 | 333 | 3.0 | 8.0 | 0.00 | 0.00 | 0.00 | 47 | 1015.5 |
| 20260509155825 | 69 | 67 | 3.0 | 8.0 | 0.00 | 0.00 | 0.00 | 48 | 1015.5 |
| 20260509155320 | 69 | 40 | 3.0 | 7.0 | 0.00 | 0.00 | 0.00 | 47 | 1015.5 |
| 20260509154815 | 69 | 19 | 3.0 | 6.0 | 0.00 | 0.00 | 0.00 | 49 | 1015.5 |
| 20260509154334 | 69 | 40 | 2.0 | 6.0 | 0.00 | 0.00 | 0.00 | 47 | 1015.4 |
| 20260509153820 | 69 | 5 | 4.0 | 6.0 | 0.00 | 0.00 | 0.00 | 48 | 1015.4 |
| 20260509153322 | 70 | 114 | 1.0 | 3.0 | 0.00 | 0.00 | 0.00 | 46 | 1015.4 |
| 20260509152815 | 70 | 35 | 1.0 | 3.0 | 0.00 | 0.00 | 0.00 | 46 | 1015.4 |
| 20260509152330 | 70 | 147 | 0.0 | 2.0 | 0.00 | 0.00 | 0.00 | 47 | 1015.6 |
| 20260509151823 | 71 | 141 | 1.0 | 3.0 | 0.00 | 0.00 | 0.00 | 48 | 1015.6 |
| 20260509151326 | 71 | 108 | 2.0 | 3.0 | 0.00 | 0.00 | 0.00 | 43 | 1015.6 |
| 20260509150900 | 72 | 129 | 1.0 | 3.0 | 0.00 | 0.00 | 0.00 | 43 | 1015.7 |
| 20260509150333 | 72 | 67 | 0.0 | 2.0 | 0.00 | 0.00 | 0.00 | 44 | 1015.7 |
| 20260509145824 | 71 | 131 | 1.0 | 2.0 | 0.00 | 0.00 | 0.00 | 45 | 1015.7 |
| 20260509145328 | 71 | 165 | 0.0 | 2.0 | 0.00 | 0.00 | 0.00 | 44 | 1015.6 |
| 20260509144831 | 71 | 358 | 0.0 | 1.0 | 0.00 | 0.00 | 0.00 | 44 | 1015.8 |
| 20260509144325 | 71 | 305 | 0.0 | 4.0 | 0.00 | 0.00 | 0.00 | 42 | 1015.8 |
| 20260509143817 | 72 | 335 | 2.0 | 4.0 | 0.00 | 0.00 | 0.00 | 42 | 1015.8 |
| 20260509143332 | 73 | 170 | 1.0 | 4.0 | 0.00 | 0.00 | 0.00 | 40 | 1015.9 |
| 20260509142832 | 74 | 71 | 1.0 | 4.0 | 0.00 | 0.00 | 0.00 | 42 | 1016.0 |
| 20260509142321 | 74 | 6 | 1.0 | 3.0 | 0.00 | 0.00 | 0.00 | 43 | 1015.9 |
| 20260509141822 | 73 | 94 | 1.0 | 3.0 | 0.00 | 0.00 | 0.00 | 44 | 1016.0 |
| 20260509141318 | 72 | 27 | 1.0 | 3.0 | 0.00 | 0.00 | 0.00 | 44 | 1016.0 |
| 20260509140830 | 71 | 328 | 1.0 | 3.0 | 0.00 | 0.00 | 0.00 | 44 | 1016.0 |
| 20260509140324 | 71 | 312 | 1.0 | 6.0 | 0.00 | 0.00 | 0.00 | 44 | 1016.1 |
| 20260509135837 | 71 | 22 | 2.0 | 7.0 | 0.00 | 0.00 | 0.00 | 44 | 1016.1 |
| 20260509135331 | 71 | 295 | 2.0 | 7.0 | 0.00 | 0.00 | 0.00 | 45 | 1016.1 |
| 20260509134822 | 71 | 13 | 3.0 | 7.0 | 0.00 | 0.00 | 0.00 | 47 | 1016.1 |
| 20260509134325 | 71 | 356 | 3.0 | 5.0 | 0.00 | 0.00 | 0.00 | 45 | 1016.2 |
| 20260509133833 | 71 | 11 | 2.0 | 4.0 | 0.00 | 0.00 | 0.00 | 46 | 1016.2 |
| 20260509133334 | 71 | 61 | 0.0 | 3.0 | 0.00 | 0.00 | 0.00 | 46 | 1016.3 |
| 20260509132826 | 71 | 61 | 1.0 | 4.0 | 0.00 | 0.00 | 0.00 | 44 | 1016.3 |
| 20260509132341 | 71 | 150 | 1.0 | 8.0 | 0.00 | 0.00 | 0.00 | 45 | 1016.4 |
| 20260509131843 | 72 | 111 | 3.0 | 8.0 | 0.00 | 0.00 | 0.00 | 43 | 1016.4 |
| 20260509131336 | 72 | 33 | 2.0 | 7.0 | 0.00 | 0.00 | 0.00 | 45 | 1016.5 |
| 20260509130829 | 72 | 354 | 1.0 | 4.0 | 0.00 | 0.00 | 0.00 | 44 | 1016.6 |
| 20260509130321 | 72 | 200 | 0.0 | 3.0 | 0.00 | 0.00 | 0.00 | 44 | 1016.7 |
| 20260509125833 | 72 | 27 | 1.0 | 4.0 | 0.00 | 0.00 | 0.00 | 44 | 1016.8 |
| 20260509125320 | 72 | 103 | 2.0 | 4.0 | 0.00 | 0.00 | 0.00 | 47 | 1016.8 |
| 20260509124821 | 71 | 150 | 2.0 | 4.0 | 0.00 | 0.00 | 0.00 | 47 | 1016.8 |
| 20260509124329 | 71 | 142 | 1.0 | 4.0 | 0.00 | 0.00 | 0.00 | 47 | 1016.9 |
| 20260509123825 | 72 | 47 | 1.0 | 7.0 | 0.00 | 0.00 | 0.00 | 46 | 1016.9 |
| 20260509123320 | 71 | 316 | 2.0 | 7.0 | 0.00 | 0.00 | 0.00 | 45 | 1017.0 |
| 20260509122823 | 71 | 53 | 4.0 | 7.0 | 0.00 | 0.00 | 0.00 | 46 | 1017.0 |
| 20260509122328 | 72 | 360 | 3.0 | 5.0 | 0.00 | 0.00 | 0.00 | 45 | 1017.0 |
| 20260509121829 | 72 | 115 | 1.0 | 7.0 | 0.00 | 0.00 | 0.00 | 45 | 1017.1 |
| 20260509121323 | 72 | 294 | 3.0 | 8.0 | 0.00 | 0.00 | 0.00 | 45 | 1017.2 |
| 20260509120839 | 73 | 1 | 3.0 | 6.0 | 0.00 | 0.00 | 0.00 | 45 | 1017.2 |
| 20260509120340 | 72 | 5 | 2.0 | 4.0 | 0.00 | 0.00 | 0.00 | 45 | 1017.2 |
| 20260509115825 | 73 | 207 | 2.0 | 3.0 | 0.00 | 0.00 | 0.00 | 44 | 1017.3 |
| 20260509115321 | 73 | 201 | 1.0 | 5.0 | 0.00 | 0.00 | 0.00 | 46 | 1017.4 |
| 20260509114836 | 72 | 115 | 0.0 | 5.0 | 0.00 | 0.00 | 0.00 | 46 | 1017.4 |
| 20260509114335 | 71 | 309 | 1.0 | 3.0 | 0.00 | 0.00 | 0.00 | 47 | 1017.4 |
| 20260509113829 | 70 | 11 | 1.0 | 5.0 | 0.00 | 0.00 | 0.00 | 47 | 1017.5 |
| 20260509113324 | 70 | 156 | 1.0 | 7.0 | 0.00 | 0.00 | 0.00 | 48 | 1017.6 |
| 20260509112847 | 70 | 21 | 1.0 | 5.0 | 0.00 | 0.00 | 0.00 | 49 | 1017.6 |
| 20260509112333 | 70 | 333 | 1.0 | 4.0 | 0.00 | 0.00 | 0.00 | 48 | 1017.7 |
| 20260509111833 | 70 | 114 | 2.0 | 7.0 | 0.00 | 0.00 | 0.00 | 49 | 1017.8 |
| 20260509111328 | 71 | 16 | 2.0 | 7.0 | 0.00 | 0.00 | 0.00 | 47 | 1017.8 |
| 20260509110821 | 71 | 119 | 1.0 | 4.0 | 0.00 | 0.00 | 0.00 | 50 | 1017.9 |
| 20260509110315 | 70 | 117 | 2.0 | 8.0 | 0.00 | 0.00 | 0.00 | 49 | 1017.9 |
| 20260509105830 | 70 | 96 | 1.0 | 8.0 | 0.00 | 0.00 | 0.00 | 50 | 1018.0 |
| 20260509105317 | 70 | 21 | 4.0 | 8.0 | 0.00 | 0.00 | 0.00 | 48 | 1018.0 |
| 20260509104818 | 70 | 120 | 2.0 | 4.0 | 0.00 | 0.00 | 0.00 | 49 | 1018.0 |
| 20260509104339 | 70 | 17 | 2.0 | 7.0 | 0.00 | 0.00 | 0.00 | 50 | 1018.0 |
| 20260509103848 | 69 | 15 | 2.0 | 7.0 | 0.00 | 0.00 | 0.00 | 51 | 1018.0 |
| 20260509103328 | 69 | 159 | 1.0 | 5.0 | 0.00 | 0.00 | 0.00 | 51 | 1018.1 |
| 20260509102824 | 68 | 117 | 1.0 | 7.0 | 0.00 | 0.00 | 0.00 | 50 | 1018.1 |
| 20260509102319 | 69 | 349 | 5.0 | 8.0 | 0.00 | 0.00 | 0.00 | 49 | 1018.2 |